Location: Im Fang
(46.6019°N, 7.2397°E)
Time: 21:55:38
(UTC+00:00)

Cosmos 1484 Rocket - Pass Details

Date: 08 December 2019
Orbit: 505 x 561 km, 97.4° (Epoch: 17 January)

Event Time Altitude Azimuth Distance (km) Brightness Sun altitude
Rises 05:25:08 0° 2° (N) 2,748 6.2 -15.9°
Reaches altitude 10° 05:27:29 10° 351° (N) 1,841 5.2 -15.5°
Maximum altitude 05:30:54 28° 292° (WNW) 1,042 3.6 -14.9°
Drops below altitude 10° 05:34:16 10° 233° (SW) 1,803 5.1 -14.4°
Sets 05:36:33 0° 221° (SW) 2,679 6.1 -14.0°
